Weather observations for the past three days for
Wiley Post-Will Rogers Memorial Airport
Imperial (Metric)
Date Time (akdt) Wind (mph) Vis. (mi.) Weather Sky Cond. Temperature (ºF) Relative Humidity Wind Chill (°F) Heat Index (°F) Pressure Precipitation (in)
Air Dwpt 6 hour altimeter (in) sea level (mb) 1 hr 3 hr 6 hr
Max. Min.
20 15:53 SW 12 10.00 Overcast OVC050 44.6 39.2 81% 39 30.11 0.0
20 14:53 SW 12 10.00 Overcast BKN005 OVC049 42.8 39.2 87% 37 30.1 0.0
20 13:53 W 7 2.50 Fog/Mist OVC004 42.8 39.2 87% 39 30.11 0.0
20 12:53 SW 6 3.00 Light Rain Fog/Mist OVC005 42.8 41 93% 40 30.11 0.0
20 11:53 SW 5 1.25 Fog/Mist OVC004 42.8 39.2 87% 41 30.1 0.0
20 10:53 SW 8 1.75 Fog/Mist OVC004 41 37.4 87% 36 30.1 0.0
20 09:53 SW 5 1.00 Fog/Mist BKN003 OVC008 39.2 37.4 93% 36 30.08 0.0
20 08:53 SW 5 1.00 Fog/Mist VV004 41 37.4 87% 38 30.08 0.0
20 07:53 NW 3 0.75 Fog/Mist OVC002 37.4 35.6 93% 30.08 0.0
20 06:53 Calm 1.50 Fog/Mist OVC003 37.4 33.8 87% 30.07 0.0
20 06:03 W 5 10.00 Overcast OVC003 37.4 33.8 87% 34 30.06 0.0
19 21:53 W 12 0.50 Fog VV003 37.4 33.8 87% 30 29.97 0.0
19 20:53 W 13 2.50 Fog/Mist BKN002 OVC011 39.2 35.6 87% 32 29.95 0.0
19 19:53 W 15 2.00 Fog/Mist OVC002 39.2 37.4 93% 31 29.92 0.0
19 18:53 W 17 5.00 Fog/Mist OVC003 41 37.4 87% 33 29.91 0.0
19 17:53 W 20 8.00 Overcast BKN005 OVC011 42.8 39.2 87% 35 29.89 0.0
19 16:53 W 24 G 32 8.00 Overcast and Breezy OVC014 44.6 39.2 81% 36 29.87 0.0
19 15:53 W 23 10.00 Overcast and Breezy FEW018 OVC026 44.6 39.2 81% 37 29.86 0.0
19 14:53 W 20 10.00 Partly Cloudy SCT026 46.4 41 82% 40 29.84 0.0
19 13:53 W 15 8.00 Fair CLR 44.6 39.2 81% 38 29.82 0.0
19 12:53 SW 20 G 28 10.00 Fair CLR 46.4 42.8 87% 40 29.8 0.0
19 11:53 SW 15 G 20 10.00 Fair CLR 46.4 41 82% 41 29.79 0.0
19 10:53 W 18 G 24 10.00 Fair CLR 48.2 42.8 82% 42 29.77 0.0
19 09:53 SW 21 G 30 10.00 Fair and Breezy CLR 55.4 46.4 72% 29.76 0.0
19 08:53 SW 25 G 35 10.00 Fair and Breezy CLR 57.2 48.2 72% 29.74 0.0
19 07:53 SW 21 G 30 10.00 Fair and Breezy CLR 57.2 48.2 72% 29.74 0.0
19 06:53 S 18 10.00 Fair CLR 55.4 48.2 77% 29.74 0.0
19 05:53 S 14 10.00 Overcast OVC065 53.6 48.2 82% 29.75 0.0
18 21:53 W 10 0.15 Fog VV002 37.4 35.6 93% 31 29.74 0.0
18 20:53 W 13 0.25 Fog VV002 39.2 35.6 87% 32 29.74 0.0
18 18:53 W 13 0.15 Fog VV002 39.2 35.6 87% 32 29.72 0.0
18 17:53 W 12 0.50 Fog VV003 39.2 37.4 93% 33 29.71 0.0
18 15:53 SW 12 0.25 Fog VV002 44.6 41 87% 39 29.69 0.0
18 14:53 SW 10 10.00 Overcast OVC013 46.4 42.8 87% 42 29.68 0.0
18 13:53 SW 10 10.00 Overcast OVC013 46.4 42.8 87% 42 29.67 0.0
18 12:53 W 9 10.00 Overcast OVC016 46.4 42.8 87% 42 29.66 0.0
18 11:53 SW 8 10.00 Overcast OVC018 48.2 42.8 82% 45 29.65 0.0
18 10:53 SW 9 10.00 Overcast OVC019 48.2 44.6 87% 45 29.64 0.0
18 09:53 S 14 10.00 Mostly Cloudy FEW016 SCT024 BKN050 53.6 46.4 77% 29.63 0.0
18 08:53 S 13 10.00 Mostly Cloudy FEW037 SCT060 BKN100 51.8 48.2 88% 29.63 0.0
18 07:53 S 10 10.00 Overcast OVC034 50 46.4 88% 46 29.64 0.0
18 06:53 S 10 10.00 Overcast BKN031 OVC042 48.2 44.6 87% 44 29.63 0.0
18 05:53 S 9 10.00 Overcast BKN033 OVC060 48.2 44.6 87% 45 29.64 0.0
17 21:53 SW 14 4.00 Light Rain Fog/Mist OVC011 46.4 42.8 87% 41 29.62 0.0
17 20:53 S 14 8.00 Light Rain FEW018 BKN048 OVC055 48.2 44.6 87% 43 29.62 0.0
17 19:53 SW 13 9.00 Light Rain OVC030 46.4 42.8 87% 41 29.63 0.0
17 18:53 SW 14 8.00 Light Rain OVC026 46.4 42.8 87% 41 29.64 0.0
17 17:53 SW 15 10.00 Light Rain OVC034 48.2 39.2 71% 43 29.64 0.0
17 16:53 SW 10 10.00 Light Rain OVC047 46.4 41 82% 42 29.65 0.0
Date Time (akdt) Wind (mph) Vis. (mi.) Weather Sky Cond. Air Dwpt Max. Min. Relative Humidity Wind Chill (°F) Heat Index (°F) altimeter (in) sea level (mb) 1 hr 3 hr 6 hr
6 hour
Temperature (ºF) Pressure Precipitation (in)